[[{"header":{"parameterUnit":"m.s-1","parameterCategory":1,"la1":30.2991,"la2":30.254,"lo1":-89.0895,"lo2":-89.0444,"dy":0.0017,"dx":0.0017,"nx":28,"ny":28,"refTime":"2025-03-25T03:00:00:Z","depth":0,"parameterNumber":2,"parameterNumberName":"U-component_of_WINDS"},"data":[0,0,0,0,0,0,0,0,0,0,0,0,0,0,0,0,0,0,0,0,0,0,0,0,0,0,0,0,0,0,0,0,0,0,0,0,0,0,0,0,0,0,0,0,0,0,0,0,0,0,0,0,0,0,0,0,0,0,-0.2885,-0.2884,0,-0.2802,-0.2801,-0.28,-0.2757,-0.2757,-0.2757,-0.2757,-0.2668,-0.2666,-0.2664,0,0,0,0,0,0,0,0,0,0,0,0,0,-0.3005,-0.3003,-0.2885,-0.2884,-0.2883,-0.2802,-0.2801,-0.28,-0.2757,-0.2757,-0.2757,-0.2757,-0.2669,-0.2666,-0.2663,0,0,0,0,0,0,0,0,0,0,0,0,0,-0.2941,-0.3002,-0.2885,-0.2852,-0.2848,-0.2802,-0.2801,-0.28,-0.2757,-0.2757,-0.2757,-0.2757,-0.267,-0.2666,-0.2663,-0.2643,0,0,-0.2652,-0.2651,0,0,0,0,0,0,0,0,-0.2944,-0.2936,-0.2858,-0.2854,-0.285,-0.279,-0.2811,-0.2747,-0.2757,-0.2791,-0.2757,-0.2757,-0.2708,-0.2702,-0.2686,-0.2639,-0.2635,-0.2652,-0.265,-0.2649,-0.2648,0,0,0,0,0,0,0,-0.2949,-0.2939,-0.2852,-0.2857,-0.2852,-0.2841,-0.2831,-0.2798,-0.2751,-0.2788,-0.2785,-0.2776,-0.2706,-0.269,-0.2684,-0.2634,-0.2652,-0.2649,-0.2647,-0.2646,-0.2567,-0.2567,0,0,0,0,0,0,-0.2959,-0.2944,-0.2855,-0.285,-0.2898,-0.2839,-0.2828,-0.2809,-0.2752,-0.2743,-0.2776,-0.2774,-0.2696,-0.2688,-0.2681,-0.2654,-0.2649,-0.2645,-0.2643,-0.2567,-0.2567,-0.2567,0,0,0,0,0,0,-0.2962,-0.2951,-0.2858,-0.2896,-0.2883,-0.2837,-0.2815,-0.2808,-0.2791,-0.2742,-0.2733,-0.2768,-0.2695,-0.2685,-0.2653,-0.2651,-0.2644,-0.2641,-0.2567,-0.2567,-0.2567,-0.2601,0,0,0,0,0,0,-0.2965,-0.2953,-0.2945,-0.2896,-0.2881,-0.2833,-0.2815,-0.2806,-0.2786,-0.2782,-0.2732,-0.2724,-0.2694,-0.2659,-0.265,-0.2646,-0.2638,-0.2567,-0.2567,-0.2567,-0.26,-0.2602,-0.2604,0,0,0,0,0,-0.297,-0.2957,-0.2945,-0.2934,-0.2871,-0.2833,-0.2824,-0.2792,-0.2785,-0.2777,-0.2746,-0.2726,-0.2653,-0.2656,-0.2645,-0.264,-0.2567,-0.2567,-0.2567,-0.2599,-0.2602,-0.2604,0,0,0,0,0,0,-0.3005,-0.295,-0.2936,-0.2907,-0.2875,-0.2826,-0.2814,-0.2795,-0.2764,-0.2762,-0.2722,-0.2711,-0.2683,-0.2658,-0.2663,-0.2619,-0.2608,-0.2606,-0.2636,-0.2638,-0.264,-0.2646,-0.2635,0,0,0,0,0,-0.301,-0.2985,-0.2937,-0.2916,-0.2901,-0.2861,-0.2843,-0.2821,-0.2786,-0.2772,-0.2738,-0.2704,-0.2674,-0.2654,-0.2623,-0.2597,-0.2585,-0.2588,-0.259,-0.2592,-0.2591,-0.2576,-0.2576,-0.2567,-0.2567,-0.2567,0,0,-0.3019,-0.2985,-0.2972,-0.2922,-0.2895,-0.287,-0.2849,-0.2823,-0.2803,-0.2767,-0.2735,-0.271,-0.2669,-0.264,-0.2626,-0.2619,-0.2591,-0.2592,-0.2594,-0.2591,-0.2576,-0.2577,-0.2577,-0.2567,-0.2567,-0.2567,0,0,-0.3022,-0.2994,-0.2974,-0.2948,-0.2908,-0.2881,-0.2877,-0.2831,-0.2813,-0.278,-0.2753,-0.2729,-0.2677,-0.265,-0.2629,-0.2625,-0.2605,-0.2615,-0.2626,-0.2612,-0.2613,-0.2613,-0.2612,-0.2612,-0.2614,-0.2614,-0.2614,0,-0.3038,-0.2999,-0.2966,-0.2942,-0.2921,-0.2889,-0.2869,-0.2844,-0.2796,-0.2782,-0.2776,-0.2711,-0.2681,-0.2646,-0.2645,-0.2629,-0.2623,-0.2621,-0.2616,-0.2616,-0.2616,-0.2614,-0.2614,-0.2616,-0.2616,-0.2616,-0.2615,0,-0.3021,-0.2994,-0.2983,-0.2939,-0.2917,-0.2894,-0.2858,-0.284,-0.282,-0.2794,-0.2762,-0.2726,-0.2688,-0.2678,-0.2657,-0.264,-0.2637,-0.2624,-0.2612,-0.2619,-0.2617,-0.2616,-0.2618,-0.2618,-0.2617,-0.2617,0,0,-0.3042,-0.2982,-0.2978,-0.2959,-0.2913,-0.2892,-0.2868,-0.2832,-0.2818,-0.2786,-0.2765,-0.2723,-0.2711,-0.2688,-0.2664,-0.2652,-0.2651,-0.264,-0.2638,-0.2644,-0.2631,-0.2641,-0.2641,-0.2638,-0.2638,-0.2638,-0.2634,0,-0.304,-0.2997,-0.2968,-0.2936,-0.2912,-0.2882,-0.2862,-0.2831,-0.2807,-0.2782,-0.2755,-0.2726,-0.2712,-0.2698,-0.2684,-0.2654,-0.2648,-0.2654,-0.2618,-0.2617,-0.263,-0.264,-0.2651,-0.2649,-0.2633,-0.2633,-0.2633,0,-0.303,-0.3001,-0.2968,-0.2926,-0.2915,-0.2897,-0.2863,-0.284,-0.2805,-0.2788,-0.2764,-0.274,-0.2714,-0.2705,-0.2669,-0.2673,-0.2657,-0.264,-0.2639,-0.2635,-0.2626,-0.2636,-0.2648,-0.2648,-0.2631,-0.2632,-0.2632,0,-0.305,-0.3002,-0.2977,-0.2961,-0.2911,-0.29,-0.2879,-0.2844,-0.2825,-0.2795,-0.2782,-0.2749,-0.2731,-0.2705,-0.2673,-0.267,-0.264,-0.2629,-0.2625,-0.2626,-0.262,-0.2621,-0.263,-0.261,-0.261,-0.261,-0.261,0,-0.305,-0.3031,-0.2986,-0.297,-0.2948,-0.2914,-0.2893,-0.2869,-0.2839,-0.2818,-0.279,-0.2771,-0.273,-0.2705,-0.268,-0.2654,-0.2646,-0.2631,-0.2625,-0.2634,-0.2636,-0.2623,-0.2622,-0.2609,-0.261,-0.261,-0.261,0,-0.3068,-0.3037,-0.3007,-0.2964,-0.2953,-0.2939,-0.2901,-0.2885,-0.286,-0.2834,-0.2826,-0.2786,-0.2756,-0.2722,-0.268,-0.2663,-0.2639,-0.263,-0.2652,-0.2648,-0.2647,-0.2648,-0.2648,-0.2647,-0.2627,-0.2627,-0.2628,0,-0.307,-0.3055,-0.3011,-0.2996,-0.2976,-0.2951,-0.2932,-0.2899,-0.288,-0.2841,-0.2829,-0.2798,-0.2771,-0.2724,-0.2691,-0.266,-0.2649,-0.2651,-0.2644,-0.2654,-0.265,-0.2651,-0.265,-0.2653,-0.2654,-0.2654,-0.2654,0,-0.3077,-0.3063,-0.3037,-0.3007,-0.2986,-0.296,-0.2932,-0.2921,-0.2883,-0.2863,-0.2833,-0.2813,-0.2771,-0.274,-0.2705,-0.2682,-0.2662,-0.2657,-0.2655,-0.2664,-0.2678,-0.2671,-0.2658,-0.2657,-0.2657,-0.2657,-0.2656,-0.2656,-0.3087,-0.3073,-0.3041,-0.3013,-0.299,-0.2966,-0.2949,-0.2923,-0.2898,-0.2863,-0.2844,-0.2815,-0.2782,-0.2733,-0.2711,-0.2687,-0.268,-0.2677,-0.2676,-0.2676,-0.2679,-0.2682,-0.268,-0.268,-0.268,-0.268,-0.268,0,-0.3093,-0.3071,-0.3047,-0.3011,-0.299,-0.2974,-0.2944,-0.2927,-0.2902,-0.2874,-0.2848,-0.2815,-0.2785,-0.2751,-0.2719,-0.2707,-0.2697,-0.27,-0.27,-0.2696,-0.2686,-0.2692,-0.2708,-0.2708,-0.2708,-0.2708,-0.2708,-0.2708,-0.3093,-0.3069,-0.3052,-0.3016,-0.2994,-0.2967,-0.2951,-0.2929,-0.2906,-0.287,-0.2846,-0.2825,-0.2794,-0.276,-0.2732,-0.2723,-0.2713,-0.2719,-0.2706,-0.2698,-0.2696,-0.2694,-0.2699,-0.2716,-0.2717,-0.2718,-0.2718,-0.2718]},{"header":{"parameterUnit":"m.s-1","parameterCategory":1,"la1":30.2991,"la2":30.254,"lo1":-89.0895,"lo2":-89.0444,"dy":0.0017,"dx":0.0017,"nx":28,"ny":28,"refTime":"2025-03-25T03:00:00:Z","depth":0,"parameterNumber":3,"parameterNumberName":"V-component_of_WINDS"},"data":[0,0,0,0,0,0,0,0,0,0,0,0,0,0,0,0,0,0,0,0,0,0,0,0,0,0,0,0,0,0,0,0,0,0,0,0,0,0,0,0,0,0,0,0,0,0,0,0,0,0,0,0,0,0,0,0,0,0,2.8525,2.8525,0,2.8479,2.8478,2.8477,2.8467,2.8468,2.8468,2.8469,2.8414,2.8412,2.841,0,0,0,0,0,0,0,0,0,0,0,0,0,2.86,2.8599,2.8526,2.8525,2.8524,2.8479,2.8478,2.8477,2.8467,2.8468,2.8468,2.8469,2.8414,2.8412,2.841,0,0,0,0,0,0,0,0,0,0,0,0,0,2.8562,2.8599,2.8526,2.8514,2.8513,2.8479,2.8478,2.8477,2.8467,2.8468,2.8468,2.8469,2.8415,2.8412,2.841,2.8382,0,0,2.8401,2.84,0,0,0,0,0,0,0,0,2.8564,2.8559,2.8516,2.8515,2.8513,2.848,2.8484,2.8445,2.8467,2.8484,2.8469,2.8469,2.8435,2.843,2.842,2.8379,2.8377,2.8401,2.8399,2.8398,2.8398,0,0,0,0,0,0,0,2.8567,2.8561,2.8507,2.8516,2.8514,2.8509,2.8504,2.8477,2.8457,2.8483,2.8482,2.8477,2.8434,2.8423,2.8419,2.8376,2.8401,2.8399,2.8397,2.8396,2.8309,2.8308,0,0,0,0,0,0,2.8572,2.8563,2.8508,2.8505,2.8541,2.8507,2.8502,2.849,2.8457,2.8453,2.8477,2.8477,2.8427,2.8422,2.8417,2.8381,2.8398,2.8396,2.8394,2.831,2.8309,2.8308,0,0,0,0,0,0,2.8574,2.8568,2.851,2.8534,2.8527,2.8506,2.8492,2.8488,2.8477,2.8452,2.8448,2.8469,2.8427,2.8421,2.8391,2.8379,2.8395,2.8392,2.8311,2.8309,2.8308,2.8311,0,0,0,0,0,0,2.8576,2.8568,2.8559,2.8534,2.8525,2.8487,2.8491,2.8487,2.8474,2.8473,2.8445,2.844,2.8427,2.8395,2.8388,2.8376,2.839,2.8311,2.831,2.8309,2.8312,2.831,2.8309,0,0,0,0,0,2.8579,2.856,2.8559,2.8552,2.8514,2.8486,2.8481,2.8469,2.8473,2.8462,2.8446,2.8441,2.8382,2.8392,2.8384,2.8371,2.8312,2.831,2.8309,2.8313,2.8311,2.8309,0,0,0,0,0,0,2.8582,2.8557,2.8555,2.8528,2.851,2.8485,2.8471,2.8467,2.8445,2.8446,2.8429,2.8423,2.8394,2.8379,2.8391,2.8342,2.8347,2.8344,2.8352,2.835,2.8349,2.8352,2.8388,0,0,0,0,0,2.858,2.8562,2.854,2.8518,2.851,2.8492,2.848,2.8472,2.8451,2.8443,2.8425,2.8403,2.838,2.8364,2.8341,2.831,2.8303,2.8297,2.8296,2.8295,2.8291,2.8273,2.827,2.8303,2.8303,2.8303,0,0,2.8574,2.8558,2.8548,2.8519,2.8504,2.8483,2.8485,2.8464,2.8448,2.8439,2.841,2.8396,2.8371,2.834,2.8326,2.8327,2.8281,2.8293,2.8292,2.8289,2.8271,2.8268,2.8265,2.8302,2.8302,2.8302,0,0,2.8554,2.8541,2.8522,2.8507,2.8485,2.8474,2.8469,2.8445,2.8436,2.8408,2.84,2.838,2.834,2.8322,2.8308,2.8282,2.8276,2.8275,2.8266,2.8248,2.8245,2.8243,2.8232,2.8229,2.8272,2.8272,2.8272,0,2.855,2.8521,2.8511,2.8491,2.8477,2.8471,2.8449,2.8435,2.8405,2.8395,2.8398,2.8349,2.8331,2.8296,2.8289,2.8278,2.8271,2.8277,2.8247,2.8244,2.8242,2.8231,2.8227,2.8272,2.8272,2.8272,2.8272,0,2.8516,2.8496,2.8483,2.8457,2.8442,2.8421,2.8406,2.8392,2.8386,2.8373,2.8343,2.8322,2.8295,2.8286,2.8279,2.8249,2.8251,2.8251,2.8255,2.8239,2.8229,2.8225,2.8272,2.8272,2.8272,2.8272,0,0,2.8495,2.8466,2.846,2.8449,2.8424,2.8408,2.8386,2.8361,2.8349,2.8329,2.8308,2.8275,2.8275,2.8259,2.8249,2.8234,2.8213,2.8235,2.8234,2.8231,2.8178,2.8177,2.8173,2.821,2.8209,2.8208,2.8179,0,2.8471,2.8434,2.8425,2.8392,2.8373,2.8367,2.8347,2.8329,2.8317,2.8297,2.8283,2.8259,2.8261,2.8251,2.8236,2.8219,2.8202,2.8221,2.8188,2.8187,2.8194,2.8168,2.8167,2.8141,2.8175,2.8175,2.8174,0,2.8438,2.842,2.8386,2.8364,2.8356,2.8339,2.8315,2.8297,2.8276,2.8268,2.8251,2.8243,2.8217,2.8224,2.8188,2.8201,2.8187,2.8177,2.8175,2.8171,2.8179,2.8161,2.8132,2.8128,2.8168,2.8169,2.8169,0,2.8425,2.8392,2.8367,2.8357,2.8332,2.832,2.8308,2.8287,2.8273,2.8252,2.8242,2.8217,2.8203,2.8183,2.8168,2.8175,2.8132,2.8138,2.8123,2.8123,2.8113,2.8114,2.8081,2.8107,2.8107,2.8107,2.8107,0,2.8398,2.8377,2.8361,2.8346,2.8322,2.831,2.8286,2.8274,2.8256,2.8236,2.8229,2.821,2.8192,2.817,2.8158,2.8129,2.8123,2.8114,2.8111,2.8114,2.8115,2.8103,2.8104,2.8106,2.8106,2.8106,2.8106,0,2.8379,2.8367,2.834,2.8318,2.8312,2.8296,2.8276,2.826,2.8248,2.8223,2.8217,2.8197,2.8172,2.8155,2.8121,2.8113,2.8081,2.8079,2.8089,2.8087,2.8072,2.8073,2.8029,2.8022,2.8054,2.8054,2.8054,0,2.8362,2.8346,2.8324,2.8311,2.83,2.828,2.8266,2.8254,2.8239,2.8214,2.82,2.8175,2.8153,2.8112,2.8093,2.8067,2.8063,2.805,2.8059,2.8063,2.8061,2.8062,2.8059,2.8048,2.8047,2.8047,2.8047,0,2.8333,2.8328,2.8309,2.8289,2.8273,2.8255,2.8238,2.8227,2.8212,2.8195,2.817,2.8154,2.8121,2.8094,2.8067,2.8052,2.8046,2.8045,2.8039,2.8042,2.8047,2.8043,2.8083,2.8045,2.8045,2.8045,2.8045,2.8046,2.8313,2.8298,2.8281,2.826,2.8246,2.823,2.8213,2.8201,2.818,2.8154,2.8147,2.8121,2.8098,2.8061,2.8046,2.8023,2.8025,2.8018,2.8015,2.8013,2.8013,2.8053,2.8018,2.8018,2.8018,2.8018,2.8018,0,2.8282,2.8271,2.8252,2.8229,2.8212,2.8211,2.8191,2.8176,2.8154,2.8135,2.8115,2.8085,2.806,2.804,2.8013,2.7999,2.7995,2.7992,2.7992,2.7988,2.8014,2.802,2.7995,2.7995,2.7995,2.7995,2.7995,2.7995,2.8264,2.8239,2.8233,2.82,2.8188,2.8164,2.8153,2.8137,2.8122,2.809,2.807,2.8058,2.8038,2.801,2.7986,2.798,2.797,2.7967,2.7961,2.7984,2.7987,2.7989,2.7995,2.7965,2.7965,2.7937,2.7937,2.7937]}]]